Regional Weather Roundup
Issued by NWS

Home | Current Version | Previous Version | Graphics & Text | Print | Product List | Glossary On
Versions: 1 2 3 4 5 6 7 8 9 10 11 12 13 14 15 16 17 18 19 20 21 22 23 24 25 26 27 28 29 30 31 32 33 34 35 36 37 38 39 40 41 42 43 44 45 46 47 48 49 50
000
ASUS43 KLSX 140507
RWRMO

WEATHER SUMMARY FOR MISSOURI
NATIONAL WEATHER SERVICE SPRINGFIELD MO
1100 PM CST SAT FEB 13 2016

NOTE: "FAIR" INDICATES FEW OR NO CLOUDS BELOW 12,000 FEET WITH NO
       SIGNIFICANT WEATHER AND/OR OBSTRUCTIONS TO VISIBILITY.
       CURRENT SKY AND/OR WEATHER CONDITIONS ARE NOT AVAILABLE FOR
       CHILLICOTHE AND FARMINGTON.

MOZ001>031-035>038-043-044-053-054-140600-
...NORTHERN AND WESTERN MISSOURI...

CITY           SKY/WX    TMP DP  RH WIND       PRES   REMARKS
KANSAS CTY INT CLOUDY    21   4  47 E13       30.20F WCI   9
KANSAS C DTWN  CLOUDY    24   4  42 E8        30.22F WCI  15
LEE`S SUMMIT   CLOUDY    22   4  46 E14       30.21F WCI   9
ST JOSEPH      CLOUDY    21   1  41 SE12      30.22F WCI   9
CHILLICOTHE      N/A     22   5  48 E13G18    30.29F WCI  10
KIRKSVILLE     CLOUDY    19   6  57 E9        30.34F WCI   8

$$
MOZ066>068-077>081-088>096-101>105-140600-
...SOUTHWEST MISSOURI...

CITY           SKY/WX    TMP DP  RH WIND       PRES   REMARKS
SPRINGFIELD    CLOUDY    30   4  33 SE17      30.22R WCI  18
JOPLIN         CLOUDY    36   8  31 MISG      30.17F

$$
MOZ032>034-039>042-045>050-055>058-069>072-140600-
...CENTRAL MISSOURI...

CITY           SKY/WX    TMP DP  RH WIND       PRES   REMARKS
COLUMBIA       CLOUDY    22   3  44 E13       30.32F WCI  10
JEFFERSON CITY CLOUDY    24   3  40 E14       30.35F WCI  12
ROLLA          CLOUDY    23   3  42 E13       30.28F WCI  11
SEDALIA        CLOUDY    24   3  40 SE16      30.28F WCI  11
WHITEMAN AFB   CLOUDY    23   4  43 E14       30.24F WCI  11
WARRENSBURG    CLOUDY    25   5  42 E12       30.25F WCI  14
OSAGE BEACH    CLOUDY    27   1  33 SE7       30.29F WCI  19

$$
MOZ051-052-059>065-140600-
...EAST CENTRAL MISSOURI...

CITY           SKY/WX    TMP DP  RH WIND       PRES   REMARKS
ST LOUIS INTL  CLOUDY    23   5  46 SE9       30.41F WCI  13
SPIRIT OF STL  CLOUDY    23   6  48 SE7       30.39F WCI  15
ST CHARLES     CLOUDY    22   6  50 SE9       30.42F WCI  12

$$
MOZ072>076-082>087-097>100-106>115-140600-
...SOUTH CENTRAL AND SOUTHEAST MISSOURI...

CITY           SKY/WX    TMP DP  RH WIND       PRES   REMARKS
CAPE GIRARDEAU CLOUDY    25   8  48 E10       30.41F WCI  15
FARMINGTON     CLOUDY    23   7  50 SE6       30.37F WCI  16
POPLAR BLUFF   CLOUDY    27   7  42 E7        30.39F WCI  19
WEST PLAINS    CLOUDY    23   2  40 SE13G20   30.31F WCI  11

$$


USA.gov is the U.S. government's official web portal to all federal, state and local government web resources and services.